Regional Weather Roundup
Issued by NWS

Home | Current Version | Previous Version | Graphics & Text | Print | Product List | Glossary On
Versions: 1 2 3 4 5 6 7 8 9 10 11 12 13 14 15 16 17 18 19 20 21 22 23 24 25 26 27 28 29 30 31 32 33 34 35 36 37 38 39 40 41 42 43 44 45 46 47 48 49 50
000
ASUS45 KBOU 280407
RWRCO

WEATHER ROUNDUP FOR COLORADO
NATIONAL WEATHER SERVICE DENVER/BOULDER CO
1000 PM MDT WED AUG 27 2014

NOTE: "FAIR" INDICATES FEW OR NO CLOUDS BELOW 12000 FEET WITH NO
SIGNIFICANT WEATHER AND/OR OBSTRUCTIONS TO VISIBILITY.

COZ001>005-013-030-031-280500-
...NORTHWEST COLORADO...

CITY           SKY/WX    TMP DP  RH WIND       PRES   REMARKS
CRAIG          CLOUDY    54  51  90 SW6       30.30R
HAYDEN         CLOUDY    52  46  82 CALM      30.31S
MEEKER         CLOUDY    53  49  86 CALM      30.32S
MOUNT WERNER   NOT AVBL
STEAMBOAT SPGS CLOUDY    52  49  89 CALM      30.32S
WALDEN         MOCLDY    50  43  76 S5        30.35S
$$

COZ006>008-011-280500-
...WEST CENTRAL VALLEYS...

CITY           SKY/WX    TMP DP  RH WIND       PRES   REMARKS
GRAND JUNCTION CLOUDY    58  56  93 CALM      30.25R
MONTROSE       PTCLDY    55  47  74 SE6       30.31S
EAGLE          CLOUDY    55  48  76 W8        30.34R
RIFLE          CLOUDY    57  53  86 E5        30.28S
DELTA          RAIN      61  54  77 N3        30.27F
NUCLA          NOT AVBL
$$

COZ017>023-064>068-280500-
...SOUTHWEST COLORADO...

CITY           SKY/WX    TMP DP  RH WIND       PRES   REMARKS
DURANGO        PTCLDY    51  45  79 CALM      30.34R
CORTEZ         CLEAR     51  49  92 SE3       30.31S
PAGOSA SPRINGS MOCLDY    55  39  54 CALM      30.38S
TELLURIDE      PTCLDY    45  43  93 CALM      30.47S
WOLF CREEK PAS PTCLDY    34  32  93 SW13      30.57S WCI  25
$$

COZ009-010-012-014-032>034-037-058>063-280500-
...CENTRAL COLORADO...

CITY           SKY/WX    TMP DP  RH WIND       PRES   REMARKS
ASPEN          CLOUDY    51  46  83 CALM      30.36R
BUENA VISTA    PTCLDY    52  35  51 W9        30.33R
COPPER MTN     CLOUDY    41  32  70 SW10G20   30.54F
BERTHOUD PASS  FAIR      32  30  93 NW18G25   30.55F FOG     WCI  20
COTTONWOOD PAS PTCLDY    48  32  53 N7        30.42F
GUNNISON       PTCLDY    50  37  62 CALM      30.40S
KREMMLING      CLOUDY    54  39  58 S5        30.34S
LEADVILLE      MOCLDY    42  34  73 E6        30.43S
MONARCH PASS   FOG       34  34 100 W36G41    30.62F VSB 1/4 WCI  19
SALIDA         PTCLDY    57  38  49 SW14G25   30.38S
SUNLIGHT       FOG       41  41 100 CALM      30.50S VSB 3/4
WILKERSON PASS NOT AVBL
$$

COZ069>075-280500-
...SAN LUIS VALLEY/SANGRE DE CRISTO MOUNTAINS...

CITY           SKY/WX    TMP DP  RH WIND       PRES   REMARKS
ALAMOSA        PTCLDY    53  40  61 N8        30.34R
LA VETA PASS   NOT AVBL
SAGUACHE       PTCLDY    50  41  71 NW17G24   30.36F
$$

COZ035-036-038>040-280500-
...NORTHERN COLORADO FRONT RANGE...

CITY           SKY/WX    TMP DP  RH WIND       PRES   REMARKS
DENVER INTL AP CLOUDY    57  53  86 NE14      30.14F
DMNS CITY PARK   N/A     58  54  86 SW5       30.15R
AURORA         PTCLDY    56  52  86 NE6       30.18R
FRONT RANGE AP CLOUDY    59  54  82 N8        30.16F
ERIE MUNI ARPT CLOUDY    60  55  81 CALM      30.14S
BOULDER MUN AP CLOUDY    61  54  77 NE3       30.14F
CENTENNIAL     MOCLDY    56  50  80 SW6       30.19R
BROOMFIELD     MOCLDY    57  54  88 W7        30.16F
FORT COLLINS   CLOUDY    63  54  72 E7        30.15F
LONGMONT       CLOUDY    64  57  79 CALM      30.15F
$$

COZ041-046-047-076>085-087-088-280500-
...PIKES PEAK/PALMER DIVIDE AND SOUTHERN FOOTHILLS...

CITY           SKY/WX    TMP DP  RH WIND       PRES   REMARKS
COLO. SPRINGS  MOCLDY    63  51  65 N25G31    30.18R
A. F. ACADEMY  MOCLDY    58  49  69 N14       30.22R
ELLICOTT       MOCLDY    61  53  75 N18G29    30.15S
FALCON         PTCLDY    57  50  78 N12G20    30.24R
FORT CARSON    MOCLDY    61  52  72 N15G24    30.16R
LIMON          CLOUDY    61  58  90 NW21      30.17R
MONUMENT HILL  MOCLDY    52  50  93 N6        30.26R
TRINIDAD       PTCLDY    66  44  45 W13       30.14R
$$

COZ042>045-048>051-090-091-280500-
...NORTHEAST COLORADO...

CITY           SKY/WX    TMP DP  RH WIND       PRES   REMARKS
GREELEY ARPT   CLOUDY    63  50  63 S6        30.15R
AKRON          LGT RAIN  60  58  92 NE6       30.11R
BURLINGTON     MOCLDY    67  65  93 SE9       30.01S
WRAY           TSTM      62  62 100 N6        30.07R
STERLING       CLOUDY    68  63  83 NE6       30.06R
HOLYOKE        TSTM      61  59  94 N5        30.10R VSB 1
FORT MORGAN    CLOUDY    63  54  72 N8        30.10S
$$

COZ086-089-092>099-280500-
...SOUTHEAST COLORADO...

CITY           SKY/WX    TMP DP  RH WIND       PRES   REMARKS
PUEBLO         PTCLDY    74  41  30 N15G30    30.07R
LA JUNTA       MOCLDY    69  61  75 MISG      30.01R
LAMAR          MOCLDY    76  59  55 S22G30    29.95F
SPRINGFIELD      N/A     69  62  78 S20       30.06S
$$


USA.gov is the U.S. government's official web portal to all federal, state and local government web resources and services.